カタログに戻る

COSMOS 1562

運用中軍事LEO
NORAD 15001·PAYLOAD·🇷🇺 Russia

打ち上げ May 28, 1984 から Plesetsk Cosmodrome

Loading…

次のパス (今後24時間)

TLE

最新Source: Space-Track

元期: Sep 14, 2026, 19:31 UTC

1 15001U 84052D   26257.81335921 -.00000006  00000-0  65990-4 0  9990
2 15001  74.0128 196.9718 0015323 345.5279  41.5839 12.49966711929984

AllMySatでCOSMOS 1562をリアルタイム追跡

Download on the App Store